Flag for Germany Weather past 2 weeks in Bergisch Gladbach, North Rhine-Westphalia, Germany

Now
34 °F

Partly cloudy.


Feels Like: 28 °F
Forecast: 31 / 36 °F
Wind: 7 mph from West

Location: Koeln / Bonn

Current Time: Feb 2, 2015 at 3:43:29 AM

Latest Report: Feb 2, 2015 at 3:20 AM


Visibility: 4 mi

Pressure: 29.47 "Hg

Humidity: 100%

Dew point: 34 °F

Location of Bergisch GladbachLocation

Historic Weather in Bergisch Gladbach — Graph

°F

Bergisch Gladbach temperature yesterday

Maximum temperature yesterday: 37 °F (at 2:20 PM)
Minimum temperature yesterday: 30 °F (at 1:50 AM)
Average temperature yesterday: 33 °F

Past Weeks' High & Low Weather Summary

 TemperatureHumidityPressure
High45 °F (Jan 29, 1:50 PM)100% (Jan 20, 4:20 AM)30.42 "Hg (Jan 20, 4:20 AM)
Low27 °F (Jan 19, 7:20 AM)57% (Jan 29, 1:50 PM)28.71 "Hg (Jan 30, 12:50 AM)
Average35 °F86%29.78 "Hg
* Reported Jan 18 2:20 AM — Feb 2 2:20 AM, Bergisch Gladbach, Weather by CustomWeather, © 2014

Note: Actual official high and low records may vary slightly from our data, if they occured in-between our weather recording intervals... More about our weather records

Advertising

Bergisch Gladbach weather history for previous 24 hours

 ConditionsComfort  
Time TempWeatherWind HumidityBarometerVisibility
2:20 AM
Feb 2
36 °FLight rain. Partly cloudy.9 mph93%29.47 "Hg3 mi
1:50 AM36 °FPartly cloudy.6 mph93%29.45 "Hg3 mi
1:20 AM36 °FPartly cloudy.9 mph93%29.45 "Hg3 mi
12:50 AM36 °FPartly cloudy.8 mph93%29.45 "Hg3 mi
12:20 AM36 °FLight rain. Partly cloudy.5 mph93%29.45 "Hg3 mi
11:50 PM
Feb 1
36 °FLight rain. Partly cloudy.6 mph93%29.42 "Hg3 mi
11:20 PM34 °FLight rain. Partly cloudy.9 mph100%29.42 "Hg3 mi
10:50 PM36 °FLight snow. Partly cloudy.5 mph100%29.42 "Hg3 mi
10:20 PM34 °FPartly cloudy.5 mph100%29.42 "Hg4 mi
9:50 PM36 °FPartly cloudy.6 mph100%29.42 "Hg4 mi
9:20 PM34 °FLight snow. Passing clouds.3 mph100%29.39 "Hg4 mi
8:50 PM34 °FPassing clouds.5 mph100%29.39 "Hg4 mi
8:20 PM34 °FMostly cloudy.5 mph100%29.39 "Hg4 mi
7:50 PM34 °FLight snow. Mostly cloudy.3 mph93%29.36 "HgN/A
7:20 PM34 °FLight snow. Mostly cloudy.2 mph93%29.36 "HgN/A
6:50 PM34 °FLight snow. Mostly cloudy.2 mph93%29.33 "HgN/A
6:20 PM34 °FLight rain. Mostly cloudy.2 mph93%29.33 "Hg5 mi
5:50 PM34 °FLight rain. Mostly cloudy.2 mph93%29.30 "Hg5 mi
5:20 PM36 °FDrizzle. Mostly cloudy.6 mph93%29.30 "HgN/A
4:50 PM37 °FDrizzle. Broken clouds.3 mph87%29.30 "HgN/A
4:20 PM37 °FLight rain. Partly sunny.3 mph87%29.27 "HgN/A
3:50 PM37 °FPartly sunny.5 mph87%29.27 "HgN/A
3:20 PM37 °FLight rain. Partly sunny.3 mph87%29.27 "HgN/A
2:50 PM37 °FBroken clouds.3 mph87%29.27 "HgN/A
2:20 PM37 °FBroken clouds.5 mph87%29.27 "HgN/A
1:50 PM36 °FBroken clouds.7 mph93%29.24 "HgN/A
1:20 PM34 °FBroken clouds.7 mph100%29.24 "HgN/A
12:50 PM32 °FLight snow. Broken clouds.7 mph100%29.24 "Hg6 mi
12:20 PM32 °FSnow. Ice fog.6 mph100%29.24 "Hg1 mi
11:50 AM32 °FSnow. Partly sunny.7 mph100%29.24 "Hg1 mi
11:20 AM34 °FLight snow. Partly sunny.7 mph87%29.24 "Hg3 mi
10:50 AM34 °FLight snow. Partly sunny.6 mph87%29.24 "HgN/A
10:20 AM34 °FPartly sunny.7 mph87%29.21 "HgN/A
9:50 AM34 °FPartly sunny.7 mph87%29.21 "HgN/A
9:20 AM32 °FPartly sunny.7 mph87%29.21 "HgN/A
8:50 AM32 °FPartly sunny.7 mph87%29.21 "HgN/A
8:20 AM32 °FPartly sunny.6 mph87%29.21 "HgN/A
7:50 AM32 °FPassing clouds.6 mph87%29.18 "HgN/A
7:20 AM32 °FPassing clouds.6 mph87%29.18 "HgN/A
6:50 AM32 °FPassing clouds.6 mph87%29.18 "HgN/A
6:20 AM30 °FPassing clouds.5 mph93%29.18 "HgN/A
5:50 AM32 °FPartly cloudy.5 mph87%29.15 "HgN/A
5:20 AM30 °FPartly cloudy.1 mph93%29.15 "HgN/A
4:50 AM30 °FPassing clouds.3 mph93%29.15 "HgN/A
4:20 AM30 °FPartly cloudy.3 mph93%29.15 "HgN/A
3:50 AM30 °FPartly cloudy.5 mph93%29.15 "HgN/A
3:20 AM30 °FPassing clouds.3 mph93%29.15 "HgN/A
Weather by CustomWeather, © 2014

See weather overviewHow to use our weather pages